Forside
METAR-TAF:

METAR-TAF

Lufthavne :

Prairie du Chien Municipal Airport

Prairie du Chien, Wisconsin, USA

Breddekreds: 43-01-19N, længdekreds: 091-07-29W, højde: 201 m

Aktuelle vejr

Denne rapport blev lavet for 10 minutter siden, kl. 09:15 UTC
Vind 3 kt fra østsydøst
Temperatur 16°C
Fugtighed 94%
Tryk 1019 hPa
Sigt: 16.1 km
Overskyet i en højde af 300 ft

METAR: KPDC 310915Z AUTO 11003KT 10SM OVC003 16/15 A3008 RMK AO2 T01560145

Tid: 04:25 (09:25 UTC)


TAF: fraværende

Vejrobservationer og prognoser fra mere end 4000 lufthavne (METAR og TAF).

De gule og røde prikker repræsenterer de meteorologiske stationer.

Flyt musen over at se navnet på stationen.

Så klik over at se vejr observationer og prognoser.

At skifte det kort: Klik på de grønne knapper med et sort kors for at zoome ind; på den grønne knap med en bindestreg for at zoome ud; eller på de grønne pile for tilstødende kort.


METAR-TAF: